Lid_Strength_Index
1 1 1 1 1 1 0 0 0 0 0 0 0 0 -0 -0 0 2 6 3 2 -2 1 4 4 4 4 4 5 5 8 9 9 9 8 6 7 6 6 6 6 5 5 4 5
1 1 1 1 1 0 0 0 0 0 0 1 0 0 0 0 3 5 1 -1 -2 -1 4 5 5 5 5 6 5 6 8 9 7 7 8 7 7 6 7 6 6 5 4 5 5
1 1 1 1 1 0 0 0 0 0 0 1 1 1 0 0 6 6 -1 -2 -2 1 4 5 5 5 7 6 6 7 9 8 8 8 8 8 8 7 7 8 5 6 5 4 5
1 1 1 1 1 1 0 -0 -0 -0 0 0 1 1 0 3 9 6 -2 -2 -2 3 4 5 6 7 7 8 7 9 8 8 8 8 8 8 8 8 8 7 5 4 4 4 5
1 1 1 1 1 1 0 -0 -0 -0 -0 0 1 1 2 7 7 -0 -2 -1 3 4 5 6 7 7 8 8 9 9 8 8 8 8 8 8 8 8 8 6 5 5 5 5 5
1 1 1 1 1 0 0 -0 -0 0 0 0 1 1 6 9 4 -0 -0 4 4 5 6 6 6 6 8 9 9 9 9 9 8 8 8 9 9 9 8 6 7 7 6 6 5
1 2 1 1 1 0 0 -0 -0 0 0 1 1 2 7 7 3 1 3 4 5 5 6 6 6 6 7 9 8 9 11 9 9 10 10 9 11 10 8 7 8 8 7 6 6
2 2 2 2 1 1 1 0 1 0 1 1 1 3 8 5 3 4 5 6 5 5 6 5 5 7 8 8 9 11 11 12 10 11 10 10 12 9 7 9 8 7 7 7 7
2 2 2 1 1 1 1 1 2 1 1 1 4 8 9 5 7 6 6 7 6 6 6 7 7 9 9 11 12 12 13 13 12 10 11 10 12 9 8 9 9 8 8 7 7
2 2 2 2 2 2 1 3 3 3 3 3 5 9 8 9 7 7 7 7 8 8 8 8 9 10 11 12 14 12 13 13 14 10 11 13 13 11 9 10 9 9 8 8 8
2 2 2 1 1 1 3 5 5 6 7 7 8 9 9 7 6 7 7 7 8 9 11 10 11 13 11 10 10 12 13 13 12 11 12 13 12 11 10 10 10 9 8 8 8
1 1 1 1 1 2 4 7 8 8 10 8 8 9 9 8 10 9 7 8 9 11 11 12 13 10 11 11 12 12 13 13 11 11 14 13 13 11 10 10 9 9 9 8 8
2 2 1 1 1 2 6 7 6 7 11 9 10 10 10 9 10 9 8 9 10 12 12 11 10 11 12 12 13 13 14 13 13 12 12 13 13 12 10 10 9 9 9 8 8
2 2 2 2 3 4 6 7 6 8 11 11 12 11 10 10 13 10 9 10 11 12 12 12 11 13 13 14 12 14 11 13 14 15 15 13 17 12 11 11 10 9 9 8 8
3 3 2 2 4 4 7 8 7 10 18 12 12 9 10 12 11 11 9 10 12 13 12 12 13 14 14 13 12 13 13 14 14 14 16 14 17 12 12 11 11 10 9 8 7
4 2 2 4 4 5 6 8 8 13 19 12 12 12 12 12 12 11 11 10 11 12 12 12 12 12 12 13 12 13 13 14 14 15 18 14 15 14 13 12 11 9 8 7 8
4 3 3 2 4 5 5 5 13 17 10 13 14 12 13 13 12 12 12 12 13 14 13 13 13 12 12 13 13 13 14 16 16 16 17 14 16 14 10 9 10 9 9 9 9
5 3 3 3 4 4 4 9 17 13 12 9 11 12 12 11 11 12 13 12 12 12 13 14 15 13 11 11 11 13 12 15 22 19 16 13 17 13 9 9 9 10 11 10 10
4 3 4 4 4 3 7 14 13 12 9 10 10 11 11 11 11 12 12 12 11 12 13 13 14 12 13 12 11 13 14 11 14 14 16 15 13 10 9 10 11 10 10 10 11
6 7 7 3 4 4 9 13 11 9 10 10 12 11 13 11 12 13 12 11 12 11 10 12 15 11 12 11 11 12 11 14 14 18 20 16 15 15 11 10 11 12 11 11 11
6 9 7 3 3 7 12 12 10 8 8 10 11 12 11 12 11 12 12 10 9 10 10 9 11 12 10 12 12 11 12 12 12 13 18 19 15 10 10 10 12 12 12 12 12
7 12 6 3 9 9 13 11 10 10 9 9 8 10 11 10 11 11 11 9 7 8 10 8 11 15 12 8 7 9 11 11 17 17 14 15 15 8 7 9 12 12 12 12 12
8 8 4 3 11 11 9 9 8 8 8 8 10 9 8 10 13 10 10 7 7 8 10 9 13 17 15 11 10 12 11 11 11 13 17 19 16 8 8 10 12 12 12 12 12
8 11 7 6 6 9 10 10 10 7 8 7 8 8 9 11 9 11 10 9 7 8 8 8 12 15 18 14 12 14 13 12 13 16 16 16 14 11 11 13 12 12 12 12 11
9 11 9 11 10 8 9 10 11 11 8 8 9 9 10 12 11 11 10 10 9 10 10 10 14 12 12 13 14 14 14 14 14 14 16 14 14 12 13 14 12 11 12 12 11
11 11 9 11 10 10 10 11 11 10 10 11 11 11 11 11 10 12 12 12 11 11 12 11 14 14 16 13 13 14 13 13 13 13 13 13 13 12 11 11 12 11 12 12 11
9 8 10 13 12 12 12 11 11 10 12 10 11 12 13 11 9 10 10 10 11 12 13 13 14 15 18 14 16 18 15 13 13 12 13 15 12 12 13 13 12 11 11 11 10